Theta_e
343 335 334 328 317 318 313 316 323 320 319 327 328 324 321 323 319 317 344 348 353 353 359 357 359 357 357 356 356 355 356 355 355 355 355 355 355 354 354 354 354 354 354 355 355 354 354 354 354
337 332 329 323 314 309 312 319 319 322 327 330 328 328 326 324 335 336 337 348 354 356 359 358 360 359 357 357 356 355 355 355 355 354 354 354 353 353 353 353 353 353 354 354 354 354 354 354 354
332 326 323 318 312 309 312 320 323 326 329 327 325 330 328 328 336 334 342 350 354 355 357 359 359 359 357 356 355 355 354 354 353 353 352 352 353 353 352 352 352 352 353 353 353 354 354 353 353
325 323 320 315 309 311 317 323 327 326 329 330 328 324 333 340 338 341 347 350 351 354 356 359 359 357 356 355 354 354 352 352 352 352 353 353 353 353 354 354 354 354 354 354 354 354 354 354 353
322 319 310 311 310 314 321 328 328 326 326 329 329 323 328 340 345 348 349 349 349 352 354 356 358 357 356 355 354 353 352 352 352 352 352 353 354 354 354 354 355 354 354 355 355 354 356 355 355
316 315 309 308 309 314 325 329 329 326 328 328 326 326 329 342 343 346 347 346 349 349 353 355 357 357 356 355 354 354 353 353 353 352 352 353 355 356 356 356 356 353 355 355 354 355 355 354 355
313 312 307 307 309 312 323 330 327 326 327 326 330 323 333 338 342 346 346 344 345 347 348 352 351 354 356 356 355 354 354 353 352 353 354 355 355 352 352 352 353 353 353 353 350 349 346 349 352
316 314 309 311 310 311 323 328 329 327 325 333 333 321 328 339 343 344 344 343 344 345 345 347 351 349 352 351 356 355 353 352 353 354 355 353 343 346 347 347 348 347 350 349 347 344 344 346 350
315 310 307 309 311 314 322 327 326 330 328 329 331 332 336 343 344 343 342 343 343 343 347 347 347 348 349 347 347 352 352 353 353 351 350 345 340 339 338 343 345 344 349 345 343 341 341 339 341
312 309 307 312 318 317 322 327 326 324 324 325 329 335 341 343 342 341 341 340 340 340 342 345 346 346 346 344 347 350 350 353 355 352 349 341 340 340 336 334 334 336 341 337 336 336 337 335 329
308 307 308 310 316 321 323 326 327 323 322 324 325 331 339 341 341 341 342 340 340 342 342 344 344 346 347 347 352 352 352 353 354 347 342 339 337 338 336 334 333 332 331 330 330 333 332 330 329
306 309 309 311 315 320 322 327 323 324 323 327 333 334 338 339 340 341 343 342 342 342 342 344 347 348 349 350 351 353 352 353 348 340 339 339 337 338 336 334 334 332 331 331 330 328 331 331 331
307 308 309 312 318 316 324 323 324 324 327 331 334 335 336 338 340 343 343 344 345 344 345 347 348 348 345 344 345 345 343 344 338 337 336 337 336 336 335 334 333 332 332 331 330 329 328 328 327
309 308 308 312 316 317 321 320 324 327 330 331 333 332 335 336 339 340 339 340 343 343 343 342 345 339 337 337 337 336 336 336 336 336 334 335 334 335 332 332 331 331 331 331 329 329 328 327 327
308 307 307 308 313 314 320 315 319 326 330 330 330 332 333 336 336 338 337 338 342 340 339 336 336 337 336 335 334 336 335 334 334 333 333 332 331 331 330 326 324 324 325 325 327 329 329 328 327
307 307 305 309 312 313 316 309 319 323 329 328 330 331 331 333 334 335 335 336 340 338 339 338 335 334 335 335 336 336 334 334 333 331 330 327 328 327 327 322 323 324 323 322 322 322 323 325 325
307 303 304 305 309 312 312 309 311 319 328 328 329 330 331 331 332 334 333 334 335 338 338 338 339 334 333 338 337 334 329 330 335 328 328 328 325 323 325 323 323 324 321 321 320 320 321 320 321
303 303 304 304 307 308 306 306 312 320 326 327 328 329 330 330 331 332 333 334 334 335 337 338 338 336 337 336 332 330 332 335 333 330 328 326 327 324 324 323 323 322 319 318 318 319 320 320 320
306 305 304 306 308 308 308 309 313 318 323 323 326 328 329 330 332 331 333 333 332 334 335 337 336 337 337 334 332 333 333 333 330 327 326 326 325 324 325 322 321 320 318 318 318 318 318 318 321
306 304 304 306 307 310 309 309 314 317 320 323 324 326 328 330 331 331 331 332 331 332 335 335 336 337 337 337 335 335 335 330 327 328 327 326 325 324 323 322 320 319 316 317 317 317 316 316 318
306 305 305 305 306 307 307 307 308 313 320 322 324 326 327 328 329 331 332 331 332 332 333 335 337 339 339 337 334 333 327 326 325 324 324 326 324 323 323 321 320 319 318 314 315 315 316 313 316
304 307 306 304 304 300 303 300 307 309 315 318 322 324 326 328 329 329 330 331 331 332 333 336 338 338 337 332 331 327 323 321 323 322 323 323 323 321 320 320 320 319 317 316 314 313 314 314 310
306 307 305 304 303 302 302 301 305 308 311 315 320 322 325 328 329 329 329 330 331 332 332 335 337 334 332 329 327 325 325 324 322 321 322 322 321 321 319 319 317 316 314 314 314 313 313 313 311
307 305 303 303 303 299 299 300 303 307 310 312 316 318 322 326 327 329 330 331 332 332 332 334 335 334 330 327 326 326 324 322 320 320 318 317 317 317 316 315 315 315 314 313 312 313 313 312 310
308 306 298 296 297 295 300 300 303 309 309 312 314 317 320 322 326 328 329 330 331 330 330 332 330 330 326 323 322 320 322 322 320 319 317 316 313 311 313 315 313 312 313 313 314 313 313 311 308
304 306 299 291 293 295 301 298 304 308 310 312 313 317 320 322 326 328 329 329 328 329 327 326 324 323 321 319 319 322 321 320 319 318 317 314 311 311 314 312 312 312 312 312 312 312 312 310 308
305 304 304 300 297 297 299 303 308 309 310 311 313 317 320 323 326 327 328 327 326 324 323 325 322 320 318 318 322 322 322 320 319 319 317 313 314 312 312 312 311 311 312 312 311 310 310 309 309
308 306 302 303 293 292 298 298 300 307 309 311 312 315 319 322 323 324 326 325 324 321 320 319 318 318 317 319 320 319 320 319 318 317 315 314 313 314 312 311 310 312 313 311 310 311 311 308 308
306 305 302 304 301 295 293 297 309 309 312 312 313 314 316 317 318 320 323 322 320 318 317 318 317 315 317 318 318 318 318 317 316 314 313 313 314 314 310 309 309 310 310 310 310 310 309 307 308
307 304 304 302 297 299 298 298 308 310 311 312 312 314 315 314 314 316 318 321 319 319 318 316 317 315 316 317 317 317 316 315 313 313 313 314 314 312 309 309 309 309 310 310 309 310 310 307 306
Wind_Speed
11 8 3 3 1 3 4 5 2 5 3 2 6 1 4 2 2 3 2 7 10 14 12 12 10 10 9 8 8 7 7 7 7 7 7 6 6 6 5 4 5 5 5 6 6 6 7 7 7
10 5 2 1 3 4 5 1 2 2 1 6 7 5 2 2 2 6 8 7 12 13 11 11 11 10 9 7 7 6 6 6 6 5 5 5 4 4 4 4 4 5 5 6 7 7 7 7 7
9 1 2 3 2 3 3 2 3 3 6 5 3 2 2 4 3 9 5 12 12 11 10 8 9 8 8 6 5 4 5 5 4 4 4 3 3 3 3 2 3 3 4 5 5 6 6 7 7
4 3 3 2 5 2 1 7 7 9 2 1 1 3 3 6 3 3 12 13 12 10 9 9 8 7 7 5 4 3 2 2 2 3 3 3 3 3 4 5 5 6 5 4 5 6 7 8 7
2 2 3 4 3 2 2 9 13 8 4 4 2 4 4 3 7 11 12 11 11 10 9 9 7 6 6 5 3 1 0 0 1 2 3 5 6 6 5 5 4 5 6 5 6 6 7 8 8
2 1 3 2 1 2 3 10 11 5 3 5 2 6 3 2 6 10 11 12 11 11 9 8 9 7 6 5 3 2 2 3 4 4 4 6 6 7 7 5 4 4 4 4 5 6 7 7 6
2 2 2 1 2 2 5 9 9 6 6 4 6 6 1 5 7 10 9 10 10 9 10 9 8 7 6 4 3 3 3 2 2 4 6 6 7 6 5 2 3 5 5 3 4 5 6 7 7
3 2 3 2 3 3 9 12 5 8 5 5 4 4 7 11 8 8 8 8 8 9 9 9 8 9 8 7 6 5 3 3 1 3 5 5 5 7 7 4 4 4 4 3 4 4 5 5 7
1 1 2 3 7 2 10 14 4 3 7 6 7 4 7 12 12 10 7 7 7 7 7 7 7 7 6 6 5 5 4 2 1 1 4 1 3 6 6 8 10 7 2 2 1 2 2 1 4
3 3 4 3 5 4 12 15 11 7 7 11 9 5 9 14 13 12 10 8 9 9 7 5 4 4 5 4 5 5 4 2 1 1 3 2 4 4 6 6 9 10 7 3 3 3 3 5 5
2 4 2 5 7 7 16 13 9 8 8 15 15 14 16 15 14 13 9 8 8 6 5 6 5 4 5 4 2 2 2 2 1 3 3 2 3 3 3 4 4 5 4 5 5 5 5 7 6
4 6 7 3 6 9 18 12 12 15 4 11 11 16 17 15 14 10 9 7 6 5 4 5 6 5 5 4 4 3 3 2 1 2 2 3 3 3 4 4 5 4 4 6 6 5 5 6 5
4 2 3 4 9 3 11 17 10 19 10 2 12 17 18 13 9 7 4 4 4 6 5 6 5 3 3 4 2 2 1 2 3 2 5 3 3 4 4 4 4 5 5 6 7 6 6 7 7
2 2 1 2 7 8 16 8 8 14 10 7 14 18 15 13 10 7 4 4 5 4 2 3 6 4 4 4 4 4 3 4 3 3 4 5 4 3 3 3 4 5 5 6 6 7 7 7 6
2 1 5 8 4 5 11 5 17 9 11 12 15 15 12 10 7 6 3 1 4 4 4 4 6 5 5 6 4 3 3 4 4 4 5 5 4 3 4 4 4 5 6 9 7 8 6 7 6
3 3 2 8 3 3 7 13 15 6 13 16 14 12 11 7 4 5 5 3 4 6 6 6 4 5 5 4 3 2 3 3 3 3 3 3 3 3 4 5 6 7 7 8 8 9 9 9 8
5 5 2 3 4 6 8 6 5 4 12 11 11 11 11 8 6 5 3 3 1 5 6 6 5 4 4 4 3 3 2 2 1 2 1 2 3 5 5 5 6 7 8 8 8 9 9 10 10
3 4 5 6 6 6 3 3 10 4 7 7 8 9 11 10 8 6 4 3 3 5 6 5 5 5 4 4 3 2 0 1 3 2 1 2 1 3 4 4 6 7 8 9 9 11 10 10 10
5 5 5 3 5 4 3 4 9 5 0 2 6 7 10 9 6 6 5 3 3 4 5 6 7 7 6 4 4 4 4 4 4 3 3 2 3 4 4 5 7 8 8 9 11 11 11 9 6
5 3 2 1 5 2 2 5 8 6 2 2 4 7 9 8 8 9 8 4 4 4 5 7 8 8 8 5 2 3 2 2 2 1 2 2 3 4 5 6 8 8 8 9 10 10 9 9 7
3 2 1 4 4 7 1 2 4 4 3 2 3 6 7 9 11 11 10 9 5 5 4 6 7 9 6 4 1 2 4 3 2 2 3 2 5 5 6 8 8 8 8 9 10 11 12 10 8
1 2 3 2 2 2 5 1 1 6 4 3 1 4 6 9 9 9 7 7 6 6 3 6 7 7 4 2 2 3 4 5 4 5 5 5 5 7 7 8 9 9 9 10 11 8 8 6 7
4 6 4 3 4 3 6 4 3 3 3 3 2 4 6 10 8 8 4 5 5 5 6 5 4 2 1 3 2 4 5 4 5 5 6 6 6 7 8 10 12 11 9 10 10 9 8 5 5
6 2 4 3 0 1 5 4 2 4 3 3 4 6 9 9 5 5 4 4 6 6 6 4 4 3 3 3 3 4 5 6 6 7 7 7 7 8 11 12 11 10 8 8 8 8 8 5 3
3 3 3 1 3 3 3 4 3 5 4 6 6 8 10 3 5 5 5 6 5 4 4 3 3 3 2 3 3 4 5 5 6 7 7 9 9 10 10 11 10 9 9 9 7 8 7 6 5
4 4 4 4 4 6 2 2 3 3 4 6 8 11 6 4 6 5 5 4 4 2 1 3 3 3 1 2 3 3 4 4 5 6 7 8 9 9 11 10 10 10 10 8 8 8 7 7 5
4 2 3 5 1 4 3 3 7 4 8 8 11 11 5 6 5 5 3 4 2 2 3 4 4 3 2 3 3 4 4 5 7 7 7 8 10 9 10 11 11 11 9 9 9 7 7 6 6
1 8 1 2 4 6 2 4 6 6 12 13 14 9 5 7 5 4 3 2 3 2 4 4 5 4 2 3 4 5 6 7 7 8 10 11 11 11 10 11 10 10 9 8 8 7 7 7 5
4 3 5 2 3 4 6 6 3 9 8 11 11 5 7 5 5 5 3 2 4 4 5 5 3 3 4 4 5 6 7 8 8 10 10 11 12 11 10 9 9 9 9 8 7 8 7 7 7
2 3 2 0 1 0 3 7 2 6 9 10 10 7 3 2 3 3 3 5 5 6 6 4 3 5 4 5 5 7 7 9 10 10 10 11 12 11 10 9 8 9 8 7 7 8 7 6 8
Wind_Direction
141 146 178 228 98 60 37 31 336 120 160 58 118 128 74 70 20 52 108 155 138 139 151 154 160 156 146 140 132 124 120 109 100 93 90 89 83 81 70 57 53 37 25 16 12 11 8 6 2
150 151 196 108 63 44 60 312 27 113 19 141 116 139 113 94 125 115 134 156 150 146 152 158 162 160 154 148 143 136 117 102 94 93 83 73 64 60 54 28 18 13 11 3 356 353 349 344 341
150 240 274 57 86 53 104 185 132 98 140 157 166 36 91 87 73 146 115 149 150 151 153 155 162 158 160 156 150 133 122 105 103 80 62 47 32 17 1 357 347 354 360 352 344 338 327 322 321
168 163 104 46 62 87 280 151 147 145 126 174 104 97 83 14 113 131 139 144 151 150 157 153 164 168 160 160 155 147 105 95 70 36 13 2 358 350 339 342 349 339 334 334 333 326 317 308 303
70 51 55 84 11 295 237 149 159 163 162 153 115 97 82 54 93 122 141 154 157 156 165 161 166 175 170 160 165 171 204 301 356 6 359 353 343 338 333 327 338 349 330 327 330 324 314 306 298
56 290 104 91 98 329 150 170 166 184 163 130 149 131 87 89 136 148 152 160 163 162 159 168 169 177 181 170 173 219 271 317 335 348 1 355 341 335 329 321 334 359 350 341 342 339 339 339 322
63 32 53 345 99 200 164 176 194 190 168 164 144 150 126 174 171 162 156 158 166 163 168 175 179 175 186 176 199 226 239 280 330 352 0 352 353 3 351 10 27 22 17 18 35 35 18 21 20
116 125 158 199 197 246 158 177 220 195 160 102 175 180 184 190 152 151 150 164 178 180 185 183 182 181 191 183 195 215 225 242 303 1 16 8 30 21 33 6 52 28 49 74 64 26 22 39 42
151 179 214 201 187 197 152 183 179 112 131 172 194 219 215 152 160 159 163 176 192 195 201 196 195 192 200 198 183 210 211 252 304 30 38 58 24 7 352 7 356 332 156 138 82 8 353 81 76
214 218 228 220 205 185 168 189 172 185 148 196 209 214 179 163 175 177 177 185 201 200 197 196 217 221 216 219 203 188 194 224 292 8 26 17 13 341 338 337 342 342 333 304 271 211 211 240 319
148 249 208 239 228 171 165 186 184 194 201 204 208 195 187 184 186 190 190 196 210 199 200 195 191 200 222 227 200 203 216 212 145 55 38 13 334 337 333 328 323 318 305 289 292 267 253 288 304
247 260 229 276 169 174 172 161 206 206 201 198 207 195 186 193 190 192 201 196 204 216 213 187 192 199 219 234 232 229 227 200 103 83 26 10 339 337 339 319 318 303 306 296 283 283 284 272 277
217 293 257 293 137 177 169 187 194 222 215 253 188 180 198 202 184 178 187 211 216 215 217 195 182 189 247 230 204 155 150 131 102 66 54 37 14 18 354 354 330 323 319 306 296 286 282 275 264
212 241 99 29 138 149 179 181 205 231 218 166 174 187 197 198 194 180 169 198 219 201 189 160 167 154 152 125 118 112 116 116 107 101 87 75 54 38 12 355 345 334 328 320 310 302 291 274 266
309 149 134 35 139 133 158 189 225 231 192 196 190 191 196 195 189 196 135 180 206 158 128 123 144 152 138 124 134 132 142 142 155 133 105 89 68 59 5 343 327 331 327 317 309 299 286 273 261
61 56 106 39 133 104 227 235 242 202 184 208 193 189 195 179 173 121 104 128 174 177 160 156 160 142 134 127 138 143 160 163 139 109 89 84 73 28 343 331 332 340 325 320 311 303 292 284 278
43 91 83 90 33 146 214 260 37 302 213 217 195 194 200 182 142 115 86 70 148 190 173 178 166 161 137 142 159 177 173 83 357 114 130 34 7 10 338 327 333 333 325 318 315 309 302 286 277
98 98 81 71 29 53 111 307 338 9 225 212 198 201 209 203 192 150 132 122 149 177 181 186 175 157 167 155 168 189 214 304 247 196 217 252 298 334 322 326 325 323 319 315 322 312 302 291 287
119 92 73 81 27 105 53 359 348 340 93 193 200 213 228 221 191 174 180 171 161 175 193 197 188 181 185 187 213 229 233 226 245 231 247 278 345 352 337 322 319 318 314 320 314 307 306 306 301
88 77 46 168 23 121 165 52 14 10 329 279 236 231 238 233 231 220 219 205 177 184 196 198 208 199 210 219 220 288 271 254 302 306 331 323 322 334 310 311 317 313 309 314 321 308 301 292 286
71 96 230 313 68 75 290 134 14 14 353 276 237 265 252 245 250 246 233 234 232 225 216 215 218 220 224 242 258 282 248 226 275 349 328 332 323 323 317 314 312 302 294 305 315 311 298 290 284
32 343 288 312 240 352 335 250 29 351 17 17 12 247 265 264 253 249 260 262 261 263 253 237 232 229 200 138 275 324 322 314 342 315 318 323 336 329 320 311 311 309 302 299 301 301 289 273 274
53 59 55 55 108 178 28 271 79 337 162 158 202 240 245 251 263 286 282 268 269 267 257 260 253 239 221 319 354 322 306 314 318 308 319 322 315 317 318 319 316 310 302 304 300 294 287 256 264
125 103 69 88 153 45 1 302 133 188 206 195 229 245 247 253 268 270 274 268 268 267 265 265 248 259 334 338 340 314 312 315 316 332 318 319 318 323 321 315 307 302 297 290 291 291 283 271 270
64 23 359 59 26 0 3 265 359 243 261 249 248 240 245 297 263 259 260 251 263 286 287 261 240 263 303 317 316 309 306 316 312 313 317 319 319 319 312 309 307 300 293 290 287 285 275 253 251
56 26 27 355 333 339 309 344 39 273 271 258 262 258 280 274 264 267 270 285 303 327 266 201 201 233 253 255 296 313 313 304 302 307 313 310 315 311 310 300 298 296 293 290 292 285 282 271 266
131 75 62 109 112 269 357 238 250 245 249 248 247 243 252 270 267 264 262 258 239 303 278 239 216 217 230 304 300 304 309 311 312 306 308 305 307 307 297 304 300 297 292 298 301 293 287 290 282
308 127 222 62 314 323 290 277 301 266 242 234 242 242 250 255 252 262 272 265 236 210 193 196 201 216 249 315 325 326 324 314 305 300 297 305 304 302 305 309 305 309 309 307 294 298 295 286 273
148 144 66 90 338 305 303 305 253 280 302 286 268 245 245 258 256 265 272 234 231 224 228 221 232 301 310 318 327 323 319 309 302 298 303 306 306 309 310 303 306 308 305 302 299 296 293 295 282
70 99 115 24 187 85 319 281 18 302 297 283 279 233 227 262 314 291 263 238 242 241 238 242 272 273 315 339 332 314 312 311 306 303 305 312 313 316 305 301 302 301 301 302 307 313 315 312 289